03:49
Airports
History
Links
Donate
Help keep this website running!
PayPal
Bitcoin
This page is community maintained. The information is intended for PC simulator navigation or reference.
Always use approved charts for navigation.
YSKF
STARKE FIELD
STARKE FIELD (YSKF)
Woodstock, Queensland, Australia (4816)
4
Lat/Lng:19° 35' 6.51" S / 146° 46' 48.73" E
-19.585143 / 146.780203
Elevation:295'ft / 90mMSL
ID / ICAO:YSKF
Runways:1
Longest:16-34
837m / 2,746ft
Nearby Weather03:30 GMT 2017-11-23
Nearby weather at YBTL, Townsville Intl located 23.3 nautical miles from YSKF
Altimeter: 29.80
Visibility: 6.2 statute miles
Wind: 16 knots (from 070°)
Temp: 28°c / 82°f
Humidity: 65.8%

METAR: YBTL 230330Z 07016KT 9999 VCSH FEW028 BKN250 28/21 Q1009 NOSIG

(Powered by phpweather)
Runway 16 / 34
Dimensions:836.9 x 29.9m 2746' x 98'ft
Surface:
Runway 16 [A]Runway 34 [B]
Heading:161°TH 341°TH
Lat:
Lng:
19° 34' 53.67"S
146° 46' 44.25"E
19° 35' 19.36"S
146° 46' 53.21"E
User Notes and Comments
19° 35' 6.51" S / 146° 46' 48.73" E
Distance To
Airport ID:
Nearby Airports
4 Donnington Airpark 4.2 NM
YDOP ESE 105°
4 CAMP ENGSTROM WOOLSHED 19.3 NM
YCSW NW 306°
(C) Townsville Intl 23.3 NM
YBTL ( WX ) N 357°
4 PUK PUK 25.4 NM
YPUK WNW 292°
4 CORMORANT 29.0 NM
YCOT W 277°
4 DOTSWOOD 31.7 NM
YDOT W 265°
4 BENING FIELD 32.0 NM
YBEG W 261°
VFR Chart
Flight Planning at SkyVector.com